Lid_Strength_Index
3 3 3 3 3 3 3 3 2 2 2 2 2 1 0 -1 -1 -1 1 1 2 2 3 4 4 4 5 4 4 1 -0 1 3 4 5 5 6 6 8 7 6 7 6 6 6 6 7
3 3 3 3 4 3 3 2 2 2 1 1 1 0 0 -0 -1 -1 -0 1 2 2 3 4 4 5 6 8 0 1 2 2 4 4 4 5 6 5 7 7 8 6 7 7 6 7 6
3 3 3 3 2 3 2 2 1 1 1 1 1 1 0 0 0 -0 0 1 2 2 4 5 4 6 7 6 0 0 2 3 3 3 4 4 4 6 6 8 6 7 9 8 7 7 7
4 3 2 1 1 1 1 2 2 2 1 1 1 1 1 1 1 1 1 2 2 3 4 5 4 6 8 1 0 1 1 1 3 3 3 3 4 5 7 6 7 9 8 11 8 7 6
3 3 3 3 2 2 2 2 2 2 2 2 2 2 2 2 2 2 1 2 3 4 5 5 6 6 7 1 3 2 2 3 3 3 4 3 5 7 6 9 10 9 12 10 9 6 6
3 3 3 2 2 1 1 2 2 2 2 2 2 2 3 2 2 2 2 3 4 5 6 6 6 8 5 5 2 3 3 3 5 5 6 6 7 9 8 10 13 11 10 10 10 7 7
3 3 3 3 2 3 2 2 2 2 2 2 2 2 2 2 2 3 5 5 7 7 7 6 7 7 5 3 3 4 3 5 5 6 10 7 10 11 9 8 8 9 10 10 9 7 8
2 3 3 3 3 3 2 2 3 3 3 2 2 2 2 2 2 3 3 6 4 3 7 5 4 4 3 3 6 4 2 6 7 9 8 9 11 8 7 7 8 8 9 10 8 7 7
2 3 3 2 2 2 3 3 3 3 3 3 2 2 2 2 2 3 4 4 1 3 8 7 5 5 5 4 6 6 3 4 7 9 8 10 9 6 7 8 9 9 10 10 10 8 7
2 2 3 3 3 2 2 2 2 2 2 3 3 3 2 2 4 4 5 1 3 0 12 11 8 6 5 4 6 3 3 5 6 9 8 8 7 7 8 9 8 11 7 8 9 10 13
2 2 2 2 2 2 2 2 3 3 2 3 3 2 2 2 3 5 3 3 1 2 18 9 8 4 5 6 5 6 3 4 8 8 8 10 8 8 9 9 7 10 7 9 9 11 12
1 1 1 1 1 2 2 2 2 2 2 2 1 1 1 2 2 2 3 2 2 13 18 10 7 8 7 6 6 4 5 3 4 7 7 8 6 7 8 7 7 7 8 9 9 11 16
1 1 1 1 1 1 1 1 1 1 2 1 1 0 1 -0 4 2 2 4 13 17 8 10 9 7 8 8 7 7 7 8 9 12 12 9 8 6 6 9 7 8 10 15 19 17 17
0 0 1 1 1 1 0 0 0 1 1 1 1 0 -0 1 0 2 3 9 17 11 10 6 7 7 9 7 7 7 8 9 7 8 11 12 14 8 7 8 10 10 11 17 21 19 17
0 0 0 -0 0 0 0 1 1 1 1 0 0 1 2 3 2 3 7 15 13 10 7 8 8 9 9 8 8 8 8 9 8 7 11 13 13 7 7 7 7 10 12 9 15 14 17
0 1 0 0 -0 -0 -0 0 0 0 0 0 2 5 6 3 3 4 10 13 10 7 6 7 10 9 11 9 9 9 9 7 8 6 6 9 13 10 8 8 8 10 8 13 15 21 19
1 0 0 0 -0 -0 -0 -0 1 0 -0 -1 3 8 6 3 3 8 13 11 9 6 6 8 9 9 9 10 9 11 10 7 7 7 6 8 11 12 9 10 11 11 12 11 11 13 19
0 -0 -0 -0 -0 -0 -0 -0 0 -0 -0 2 6 11 5 3 11 10 11 10 7 7 6 7 7 8 9 9 10 9 10 9 6 7 9 9 11 15 12 8 8 9 10 10 15 15 13
-1 -0 -0 -1 -1 -1 -1 -1 -0 1 2 5 10 10 6 5 12 11 9 9 8 8 8 7 8 7 7 9 11 9 9 8 7 7 9 9 13 16 14 11 9 11 10 10 10 11 14
-0 -0 -0 -0 -1 -1 -1 -1 -1 0 2 4 8 12 10 9 8 9 11 11 11 7 8 7 8 7 8 9 8 10 10 9 8 8 8 7 11 13 17 13 11 12 11 10 11 14 14
-0 -0 0 0 -0 -1 -1 -1 -1 -0 1 3 7 9 7 12 11 9 9 9 11 11 8 7 9 9 9 11 11 11 9 10 9 9 9 9 13 11 11 11 11 12 12 11 12 11 13
-0 -0 -0 -0 -0 -0 -0 -1 -1 -1 1 4 9 8 6 8 8 9 10 11 11 10 9 10 10 9 9 11 10 11 10 10 11 9 9 8 12 12 13 11 12 13 12 12 11 11 11
-1 -0 -0 0 -0 -1 -1 -1 -1 -1 1 5 5 3 6 8 9 10 11 9 9 8 8 8 9 10 10 9 8 8 7 8 8 9 9 10 11 13 16 13 13 16 12 12 11 10 10
-0 -0 -0 -0 -0 -1 -1 -0 -1 -0 1 2 3 4 8 11 10 10 8 8 9 8 10 8 8 9 8 7 7 8 9 9 9 9 7 11 11 12 15 14 19 12 8 9 10 9 8
-0 -0 -0 -1 -1 -1 -1 0 -1 -0 1 3 2 4 7 11 8 9 9 9 8 8 9 8 8 7 6 8 12 14 14 13 12 10 10 9 11 13 15 15 13 12 11 11 13 12 9
-0 -0 -0 -0 0 0 1 -0 -1 0 0 2 3 2 4 9 10 7 9 8 10 10 10 9 7 6 7 9 12 16 16 14 15 13 9 9 9 12 13 17 18 13 9 8 8 14 9
0 0 1 -0 0 0 -0 -0 -0 0 1 2 2 1 5 8 6 6 8 9 7 8 10 10 10 10 8 11 13 14 14 11 14 14 13 12 12 14 13 15 14 10 9 8 15 15 11
1 1 1 0 0 0 0 -0 0 1 1 2 2 2 4 6 6 5 5 6 7 8 11 9 11 10 10 11 12 11 12 11 12 12 11 12 13 14 13 15 17 10 10 13 12 11 11
1 0 1 1 1 1 1 1 2 2 2 2 3 1 2 5 7 4 5 5 5 6 7 8 8 8 7 9 9 9 11 10 11 14 9 14 11 14 12 13 11 10 12 10 10 11 12